Tracking 19846 objects as of 21-Sep-2019
HD Live streaming from Space Station
objects crossing your sky now

SL-14 DEB

Track SL-14 DEB now!
10-day predictions


NORAD ID: 25831
Int'l Code: 1978-100AT
Perigee: 1,689.1 km
Apogee: 1,710.0 km
Inclination: 82.5 °
Period: 120.3 minutes
Semi major axis: 8070 km
RCS: 0.014 m2 (small)
Launch date: October 26, 1978
Source: Commonwealth of Independent States (former USSR) (CIS)
Launch site: PLESETSK MISSILE AND SPACE COMPLEX (PKMTR)

Note: This is SATELLITE DEBRIS
aabbcc
Your satellite tracking list
Your tracking list is empty




NASA's NSSDC Master Catalog

Two Line Element Set (TLE):
1 25831U 78100AT  13269.35919536 -.00000022 +00000-0 -39558-3 0  9996
2 25831 082.5495 145.8333 0012956 239.5806 336.2253 11.97424716698387
Source of the keplerian elements: AFSPC